Weather History for KOJC - July, 2013

Change the Weather History Date:

Tuesday, July 16, 2013

  Actual Average Record
Temperature  
Mean Temperature 81 °F 78 °F  
Max Temperature 92 °F 88 °F 103 °F (1939)
Min Temperature 69 °F 69 °F 53 °F (2014)
Degree Days  
Heating Degree Days 0 0  
Month to date heating degree days 0 0  
Since 1 June heating degree days 14 8  
Since 1 July heating degree days 0 0  
Cooling Degree Days 16 13  
Month to date cooling degree days 207 201  
Year to date cooling degree days 586 562  
Since 1 June cooling degree days 485 458  
Growing Degree Days 30 (Base 50)    
Moisture  
Dew Point 67 °F    
Average Humidity 66    
Maximum Humidity 90    
Minimum Humidity 41    
Precipitation  
Precipitation 0.00 in 0.13 in 1.62 in (1989)
Month to date precipitation 0.54 2.03  
Year to date precipitation 22.37 22.55  
Sea Level Pressure  
Sea Level Pressure 30.20 in    
Wind  
Wind Speed 5 mph (SSE)    
Max Wind Speed 12 mph    
Max Gust Speed 18 mph    
Visibility 10 miles    
Events      
T = Trace of Precipitation, MM = Missing Value Source: NWS Daily Summary

Daily Weather History Graph

Daily Weather History Graph

Search for Another Location

Airport or City:

Trip Planner

Search our weather history database for the weather conditions in past years. The results will help you decide how hot, cold, wet, or windy it might be!

Date:

Astronomy

Jul. 16, 2013 Rise Set
Actual Time 6:07 AM CDT 8:42 PM CDT
Civil Twilight 5:36 AM CDT 9:13 PM CDT
Nautical Twilight 4:57 AM CDT 9:52 PM CDT
Astronomical Twilight 4:14 AM CDT 10:35 PM CDT
Moon 2:26 PM CDT (7/16) 12:35 AM CDT (7/16)
Length of Visible Light 15h 37m
Length of Day
14h 35m
First Quarter, 56% of the Moon is Illuminated
Jul 16
First Quarter
Jul 22
Full
Jul 29
Last Quarter
Aug 6
New
Aug 14
First Quarter

Hourly Weather History & Observations

Time (CDT) Temp. Heat Index Dew Point Humidity Pressure Visibility Wind Dir Wind Speed Gust Speed Precip Events Conditions
12:53 AM 75.0 °F - 66.0 °F 73% 30.16 in 10.0 mi Calm Calm - N/A   Partly Cloudy
1:53 AM 75.0 °F - 66.9 °F 76% 30.16 in 10.0 mi ESE 4.6 mph - N/A   Mostly Cloudy
2:53 AM 73.9 °F - 66.9 °F 79% 30.16 in 10.0 mi ESE 5.8 mph - N/A   Clear
3:53 AM 72.0 °F - 66.9 °F 84% 30.17 in 10.0 mi SE 3.5 mph - N/A   Partly Cloudy
4:53 AM 71.1 °F - 66.9 °F 87% 30.17 in 10.0 mi Calm Calm - N/A   Clear
5:53 AM 70.0 °F - 66.9 °F 90% 30.19 in 10.0 mi SE 3.5 mph - N/A   Clear
6:53 AM 71.1 °F - 68.0 °F 90% 30.20 in 9.0 mi South 4.6 mph - N/A   Clear
7:53 AM 73.9 °F - 69.1 °F 85% 30.22 in 10.0 mi Calm Calm - N/A   Clear
8:53 AM 78.1 °F - 69.1 °F 74% 30.23 in 10.0 mi South 5.8 mph - N/A   Clear
9:53 AM 80.1 °F 82.7 °F 68.0 °F 67% 30.24 in 10.0 mi SSE 4.6 mph - N/A   Clear
10:53 AM 82.9 °F 86.5 °F 69.1 °F 63% 30.24 in 9.0 mi South 4.6 mph - N/A   Partly Cloudy
11:53 AM 84.9 °F 88.2 °F 68.0 °F 57% 30.24 in 10.0 mi Variable 4.6 mph - N/A   Clear
12:53 PM 88.0 °F 91.4 °F 68.0 °F 51% 30.23 in 10.0 mi Variable 4.6 mph - N/A   Mostly Cloudy
1:53 PM 87.1 °F 90.6 °F 68.0 °F 53% 30.21 in 10.0 mi SSE 6.9 mph - N/A   Mostly Cloudy
2:53 PM 88.0 °F 90.3 °F 66.0 °F 48% 30.20 in 10.0 mi West 3.5 mph - N/A   Mostly Cloudy
3:53 PM 91.0 °F 93.8 °F 66.0 °F 44% 30.18 in 10.0 mi Variable 4.6 mph - N/A   Scattered Clouds
4:53 PM 90.0 °F 91.7 °F 64.9 °F 43% 30.18 in 10.0 mi ESE 8.1 mph - N/A   Mostly Cloudy
5:53 PM 91.0 °F 92.6 °F 64.0 °F 41% 30.18 in 10.0 mi SE 5.8 mph - N/A   Clear
6:53 PM 90.0 °F 90.6 °F 63.0 °F 40% 30.18 in 10.0 mi SSE 5.8 mph - N/A   Clear
7:53 PM 88.0 °F 89.3 °F 64.0 °F 45% 30.18 in 10.0 mi ESE 5.8 mph - N/A   Clear
8:53 PM 84.9 °F 86.6 °F 64.9 °F 51% 30.19 in 10.0 mi ESE 4.6 mph - N/A   Clear
9:53 PM 81.0 °F 83.0 °F 66.0 °F 60% 30.22 in 10.0 mi SSE 6.9 mph - N/A   Clear
10:53 PM 80.1 °F 82.3 °F 66.9 °F 64% 30.24 in 10.0 mi SSE 6.9 mph - N/A   Clear
11:53 PM 78.1 °F - 66.9 °F 68% 30.25 in 10.0 mi Calm Calm - N/A   Clear